This demonstration page uses our WeatherBlox Daily Observations layout. Learn more.

Left ArrowRight Arrow

44.8408, -93.29828

Hourly Observations for November 5, 2015

Temp ( °F °C ) Dew Point ( °F °C ) Humidity (%) Winds ( mph kmh ) Pressure ( in mb ) Visibility ( mi km ) Precip ( " mm )
12:53 am 00:53 Cloudy 62 16.7 55 12.8 78 78 S 9 15 29.81 1009 9 14 0.00 0.00
1:53 am 01:53 Cloudy 62 16.7 56 13.3 80 80 SSE 9 15 29.79 1009 9 14 0.00 0.00
2:53 am 02:53 Cloudy 62 16.7 56 13.3 80 80 S 10 17 29.76 1008 8 13 0.00 0.00
3:26 am 03:26 Cloudy with Haze 61 16 55 13 83 83 S 14 22 29.74 1007 6 10 0.00 0.00
3:53 am 03:53 Cloudy with Haze 61 16.1 56 13.3 84 84 S 13 20 29.73 1007 6 10 0.00 0.00
4:53 am 04:53 Cloudy with Haze 61 16.1 55 12.8 81 81 SSE 14 22 29.72 1006 6 10 0.00 0.00
5:53 am 05:53 Cloudy with Haze 59 15 54 12.2 83 83 SSE 18 30 29.68 1005 6 10 0.00 0.03
6:31 am 06:31 Cloudy with Mist and Fog 58 14.4 54 12.2 87 87 SE 22 35 29.62 1003 6 10 0.00 0.00
6:53 am 06:53 Cloudy 59 15 54 12.2 83 83 SSE 20 31 29.66 1004 7 11 0.00 0.00
7:53 am 07:53 Cloudy 60 15.6 55 12.8 84 84 S 17 28 29.68 1005 9 14 0.00 0.00
8:53 am 08:53 Cloudy 60 15.6 55 12.8 84 84 S 18 30 29.67 1005 9 14 0.00 0.00
9:53 am 09:53 Cloudy 61 16.1 55 12.8 81 81 S 15 24 29.65 1004 9 14 0.00 0.00
10:20 am 10:20 Cloudy 63 17 55 13 77 77 SSE 18 30 29.65 1004 9 14 0.00 0.00
10:53 am 10:53 Cloudy 62 16.7 56 13.3 80 80 S 20 31 29.62 1003 9 14 0.00 0.00
11:53 am 11:53 Cloudy 64 17.8 56 13.3 75 75 S 15 24 29.60 1002 9 14 0.00 0.00
12:53 pm 12:53 Cloudy 65 18.3 56 13.3 73 73 S 17 28 29.56 1001 8 13 0.00 0.00
1:30 pm 13:30 Cloudy with Light Rain 64 18 57 14 78 78 SW 17 28 29.56 1001 8 13 0.00 0.00
1:46 pm 13:46 Cloudy with Nearby Thunderstorms 63 17 55 13 77 77 WSW 18 30 29.56 1001 8 13 0.00 0.00
1:53 pm 13:53 Mostly Cloudy with Nearby Thunderstorms 62 16.7 55 12.8 78 78 WSW 16 26 29.57 1001 10 16 0.01 0.25
2:03 pm 14:03 Mostly Cloudy 61 16 54 12 77 77 WSW 18 30 29.59 1002 10 16 0.00 0.00
2:48 pm 14:48 Partly Cloudy 61 16 52 11 72 72 WSW 14 22 29.59 1002 10 16 0.00 0.00
2:53 pm 14:53 Partly Cloudy 60 15.6 51 10.6 72 72 W 18 30 29.59 1002 10 16 0.00 0.00
3:53 pm 15:53 Mostly Cloudy 53 11.7 45 7.2 74 74 W 22 35 29.63 1004 10 16 0.00 0.00
4:53 pm 16:53 Cloudy 50 10 42 5.6 74 74 W 18 30 29.68 1005 10 16 0.00 0.00
5:53 pm 17:53 Cloudy 49 9.4 40 4.4 71 71 W 12 19 29.70 1006 10 16 0.00 0.00
6:53 pm 18:53 Cloudy 48 8.9 38 3.3 68 68 W 15 24 29.71 1006 10 16 0.00 0.00
7:53 pm 19:53 Mostly Cloudy 46 7.8 37 2.8 71 71 W 15 24 29.71 1006 10 16 0.00 0.00
8:53 pm 20:53 Cloudy 45 7.2 36 2.2 71 71 WNW 17 28 29.70 1006 10 16 0.00 0.00
9:53 pm 21:53 Cloudy 44 6.7 36 2.2 73 73 WNW 13 20 29.71 1006 10 16 0.00 0.00
10:53 pm 22:53 Cloudy 43 6.1 34 1.1 71 71 W 13 20 29.73 1007 10 16 0.00 0.00
11:53 pm 23:53 Cloudy 42 5.6 34 1.1 73 73 W 16 26 29.75 1007 10 16 0.00 0.00

Powered by AerisWeather